Regional Weather Roundup
Issued by NWS

Home | Current Version | Previous Version | Graphics & Text | Print | Product List | Glossary On
Versions: 1 2 3 4 5 6 7 8 9 10 11 12 13 14 15 16 17 18 19 20 21 22 23 24 25 26 27 28 29 30 31 32 33 34 35 36 37 38 39 40 41 42 43 44 45 46 47 48 49 50
000
ASUS43 KMKX 210721
RWRWI

WISCONSIN REGIONAL WEATHER ROUNDUP
NATIONAL WEATHER SERVICE MILWAUKEE/SULLIVAN WI
200 AM CDT TUE OCT 21 2014

NOTE: "FAIR" INDICATES FEW OR NO CLOUDS BELOW 12,000 FEET WITH NO
SIGNIFICANT WEATHER AND/OR OBSTRUCTIONS TO VISIBILITY.

WIZ001-002-006>008-014>016-023>028-210800-
NORTHWEST WISCONSIN

CITY           SKY/WX    TMP DP  RH WIND       PRES   REMARKS
SUPERIOR ARPT  CLOUDY    46  42  84 NE10G16   30.15R
ASHLAND        CLOUDY    44  38  79 NE9       30.17R
HAYWARD        CLOUDY    45  38  76 NE7       30.13R
SIREN          CLEAR     37  36  96 CALM      30.13R
CUMBERLAND     CLOUDY    43  36  75 NE3       30.11R
RICE LAKE      CLOUDY    45  37  73 CALM      30.13R
CHETEK         MOCLDY    46  38  75 N3        30.11S
LADYSMITH      CLOUDY    46  38  75 NE6       30.13R
EAU CLAIRE     CLEAR     37  35  92 NE6       30.10R WCI  32
MENOMONIE      CLEAR     41  39  91 CALM      30.11R
NEW RICHMOND   CLEAR     35  35 100 CALM      30.11S
OSCEOLA        PTCLDY    33  33 100 CALM      30.14S
$$

WIZ003>005-009-010-017-018-210800-
NORTH CENTRAL WISCONSIN

CITY           SKY/WX    TMP DP  RH WIND       PRES   REMARKS
MANITOWISH WTR CLOUDY    39  37  94 NE6       30.12R WCI  34
ARBOR VITAE    CLOUDY    42  37  84 NE8       30.11R
WOODRUFF       CLOUDY    42  37  84 NE8       30.11R
RHINELANDER    CLOUDY    39  35  86 N3        30.11R
EAGLE RIVER    FLURRIES  38  37  94 N3        30.10R
LAND O LAKES   CLOUDY    39  37  95 N5        30.12R
PHILLIPS       CLOUDY    40  37  87 NE7       30.11R
TOMAHAWK       CLOUDY    40  34  77 N3        30.11S
MEDFORD        CLOUDY    42  38  86 NE7       30.10R
MERRILL        MOCLDY    40  35  83 N7        30.10S
$$

WIZ029-030-035-036-043>047-210800-
CENTRAL WISCONSIN

CITY           SKY/WX    TMP DP  RH WIND       PRES   REMARKS
WAUSAU         CLEAR     42  36  79 N8        30.08R
MOSINEE        PTCLDY    41  37  87 N8        30.09S
MARSHFIELD     CLOUDY    45  39  79 NE8       30.08R
STEVENS POINT  PTCLDY    42  37  82 NW5       30.08S
WAUPACA        MOCLDY    45  40  82 CALM      30.07R
WAUTOMA        CLOUDY    48  40  74 N5        30.08R
WISC RAPIDS    CLOUDY    47  39  74 N7        30.10R
CAMP DOUGLAS   MOCLDY    43  42  99 CALM      30.08R
$$

WIZ011>013-019>022-031-037>040-048>050-210800-
NORTHEAST WISCONSIN

CITY           SKY/WX    TMP DP  RH WIND       PRES   REMARKS
ANTIGO         CLOUDY    39  36  87 N9        30.08S WCI  33
SHAWANO        PTCLDY    44  38  82 N5        30.08R
OCONTO         CLOUDY    44  39  84 N5        30.05S
STURGEON BAY   CLOUDY    45  37  76 N15       30.05R
GREEN BAY      CLOUDY    45  38  76 N9        30.06R
MANITOWOC      CLOUDY    46  42  86 N10       30.04R
APPLETON       CLOUDY    43  36  75 N13       30.06R
CLINTONVILLE   PTCLDY    43  36  75 N5        30.07R
OSHKOSH        CLOUDY    46  38  73 N10       30.05R
$$

WIZ032>034-041-042-053>061-210800-
SOUTHWEST WISCONSIN

CITY           SKY/WX    TMP DP  RH WIND       PRES   REMARKS
LA CROSSE      CLEAR     41  38  89 CALM      30.09R
SPARTA         CLEAR     34  33  98 CALM      30.10R
VIROQUA        CLEAR     41  37  87 NE3       30.08R
BOSCOBEL       FOG       36  34  92 CALM      30.09R VSB 3/4
PRAIRIE DU CHI CLEAR     40  37  91 CALM      30.08R
PLATTEVILLE    CLEAR     40  38  91 CALM      30.07R
$$

WIZ056-057-062-063-064-067-068-210800-
SOUTH CENTRAL WISCONSIN

CITY           SKY/WX    TMP DP  RH WIND       PRES   REMARKS
REEDSBURG      CLOUDY    48  39  72 NE6       30.06S
BARABOO/DELLS  CLOUDY    48  38  69 N3        30.07R
LONE ROCK      CLEAR     42  36  79 W3        30.07R
MINERAL POINT  CLEAR     41  37  87 CALM      30.07R
MADISON        CLOUDY    48  40  73 N5        30.06R
MIDDLETON      CLOUDY    47  40  76 N3        30.06R
WATERTOWN      CLOUDY    47  42  83 N6        30.04R
MONROE         CLEAR     45  39  81 N7        30.05R
JANESVILLE     CLOUDY    50  41  71 N3        30.04R
$$

WIZ051-052-058>065-066-070>072-210800-
SOUTHEAST WISCONSIN

CITY           SKY/WX    TMP DP  RH WIND       PRES   REMARKS
MILWAUKEE      CLOUDY    49  41  74 N8        30.03R
WAUKESHA       CLOUDY    45  37  76 N6        30.04R
MILWAUKEE/TIMM CLOUDY    46  37  71 N7        30.04R
RACINE         CLOUDY    49  42  77 N9        30.03R
BURLINGTON     CLOUDY    47  39  75 N6        30.03R
KENOSHA        CLOUDY    49  42  77 N6        30.02S
FOND DU LAC    CLOUDY    47  37  68 N9        30.05R
SHEBOYGAN      CLOUDY    45  40  82 N8        30.03S
WEST BEND      CLOUDY    43  37  81 N5        30.04R
JUNEAU         CLOUDY    46  39  75 N6        30.06R
$$

LSZ147-162-210800-
LAKE SUPERIOR

STATION/POSITION TIME  TEMP    WIND        PRES    WAVE
                       AIR SEA DIR/SP/G            HT/PER
                 (UTC) (F)     (DEG/KT/KT) (MB)    (FT/S)
W MID LAKE BUOY  0650   42 46   50/ 16/ 17 1021.9R   3/ 5
DEVILS ISLAND    0700   44      60/ 17/ 19 1022.4R
PORT WING        0640   45      60/  9/ 16 1021.3R
SAXON HARBOR     0600   46      60/  9/ 15 1020.7R
$$

LMZ867-665-643>646-210800-
LAKE MICHIGAN

STATION/POSITION TIME  TEMP    WIND        PRES    WAVE
                       AIR SEA DIR/SP/G            HT/PER
                 (UTC) (F)     (DEG/KT/KT) (MB)    (FT/S)
CHAMBERS ISLAND  0600   46     330/ 19/ 23 1016.9S
N MID LAKE BUOY  0650   47 51  360/ 21/ 23 1016.0R   4/ 4
NORTHPORT PIER   0611   46     350/ 21/ 25 1016.6R
SISTER BAY       0527          360/ 24/ 29   N/A
KEWAUNEE LAKESHO 0600   46     340/  7/ 11 1015.8S
SHEBOYGAN LAKESH 0700   47 50  320/ 10/ 11 1017.5R
PORT WASHINGTON  0600   49     350/  3/  7 1017.3
ATWATER BUOY     0700   50     360/ 14/ 17 1017.6R
MILWAUKEE LAKESH 0700   49     340/  9/ 12   N/A
S MID LAKE BUOY  0650   51 54  350/ 17/ 21 1015.6R   4/ 6
KENOSHA   LAKESH 0700   50     340/  9/ 12 1016.6R
$$

TC  - TEMPERATURE IN CELSIUS
VSB - VISIBILITY IN STATUTE MILES
WCI - WIND CHILL INDEX
HX  - HEAT INDEX




USA.gov is the U.S. government's official web portal to all federal, state and local government web resources and services.